Weather History for Rionegro, Colombia

Change the Weather History Date:

Sunday, May 11, 2014

  Actual Average Record
Temperature  
Mean Temperature 61 °F -  
Max Temperature 67 °F 69 °F 75 °F (2005)
Min Temperature 55 °F 54 °F 53 °F (2005)
Degree Days  
Heating Degree Days 4    
Growing Degree Days 11 (Base 50)    
Moisture  
Dew Point 57 °F    
Average Humidity 91    
Maximum Humidity 100    
Minimum Humidity 66    
Precipitation  
Precipitation 0.31 in - - ()
Sea Level Pressure  
Sea Level Pressure 30.28 in    
Wind  
Wind Speed 2 mph ()    
Max Wind Speed 9 mph    
Max Gust Speed -    
Visibility 4.6 miles    
Events Fog , Rain    
Averages and records for this station are not official NWS values.
T = Trace of Precipitation, MM = Missing Value Source: Averaged Metar Reports

Daily Weather History Graph

Daily Weather History Graph

Search for Another Location

Airport:

Trip Planner

Search our weather history database for the weather conditions in past years. The results will help you decide how hot, cold, wet, or windy it might be!

Date:

Astronomy

May. 11, 2014 Rise Set
Actual Time 5:46 AM COT 6:09 PM COT
Civil Twilight 5:24 AM COT 6:31 PM COT
Nautical Twilight 4:59 AM COT 6:57 PM COT
Astronomical Twilight 4:33 AM COT 7:23 PM COT
Moon 3:38 PM COT (5/11) 3:08 AM COT (5/11)
Length of Visible Light 13h 06m
Length of Day
12h 23m
Waxing Gibbous, 89% of the Moon is Illuminated
May 11
Waxing Gibbous
May 14
Full
May 21
Last Quarter
May 28
New
Jun 5
First Quarter

Hourly Weather History & Observations

Time (COT) Temp. Dew Point Humidity Pressure Visibility Wind Dir Wind Speed Gust Speed Precip Events Conditions
12:00 AM 59.0 °F 57.2 °F 94% 30.31 in 1.9 mi NNE 4.6 mph - N/A Fog , Rain Light Rain
1:00 AM 57 °F 57 °F 98%  in 1 mi Calm Calm - - Rain Rain
1:00 AM 57.2 °F 57.2 °F 100% 30.28 in 1.2 mi Calm Calm - N/A Rain Rain
2:00 AM 57.2 °F 57.2 °F 100% 30.27 in 4.3 mi Calm Calm - N/A Rain Light Rain
3:00 AM 57.2 °F 57.2 °F 100% 30.27 in 4.3 mi Calm Calm - N/A   Light Drizzle
4:00 AM 57 °F 56 °F 97%  in 4 mi Calm Calm - - Fog Light Fog
4:00 AM 57.2 °F 57.2 °F 100% 30.25 in 3.7 mi Calm Calm - N/A Fog Fog
5:00 AM 57.2 °F 55.4 °F 94% 30.27 in 3.7 mi Calm Calm - N/A Fog Fog
5:30 AM 57.2 °F 55.4 °F 94% 30.27 in 3.7 mi Calm Calm - N/A Fog Fog
6:00 AM 57.2 °F 55.4 °F 94% 30.28 in 2.5 mi Calm Calm - N/A Fog Patches of Fog
7:00 AM 56 °F 55 °F 96%  in 2 mi NNE 2.2 mph - -   Mist
7:00 AM 55.4 °F 55.4 °F 100% 30.31 in 2.2 mi Variable 2.3 mph - N/A   Scattered Clouds
8:00 AM 57.2 °F 57.2 °F 100% 30.32 in 2.8 mi Calm Calm - N/A   Haze
9:00 AM 59.0 °F 55.4 °F 88% 30.34 in 6.2 mi Calm Calm - N/A   Mostly Cloudy
10:00 AM 64 °F 55 °F 66%  in 12 mi NNE 4.5 mph - -   Haze
10:00 AM 64.4 °F 55.4 °F 73% 30.33 in 6.2 mi NNE 4.6 mph - N/A   Partly Cloudy
11:00 AM 62.6 °F 57.2 °F 82% 30.33 in 6.2 mi WNW 8.1 mph - N/A   Light Drizzle
12:00 PM 64.4 °F 57.2 °F 77% 30.31 in 6.2 mi Calm Calm - N/A   Scattered Clouds
1:00 PM 65 °F 57 °F 69%  in 11 mi NNE 8.9 mph - -   Haze
1:00 PM 64.4 °F 57.2 °F 77% 30.28 in 6.2 mi NNE 8.1 mph - N/A   Mostly Cloudy
2:00 PM 62.6 °F 59.0 °F 88% 30.24 in 6.2 mi East 5.8 mph - N/A   Mostly Cloudy
3:00 PM 60.8 °F 59.0 °F 94% 30.22 in 4.3 mi South 9.2 mph - N/A   Light Drizzle
4:00 PM 60 °F 59 °F 95%  in 1 mi East 8.9 mph - - Rain Rain
4:00 PM 60.8 °F 59.0 °F 94% 30.22 in 4.3 mi East 9.2 mph - N/A Rain Rain
5:00 PM 60.8 °F 57.2 °F 88% 30.21 in 3.1 mi NE 4.6 mph - N/A   Scattered Clouds
6:00 PM 60.8 °F 57.2 °F 88% 30.23 in 5.0 mi Variable 2.3 mph - N/A   Scattered Clouds
7:00 PM 60 °F 58 °F 92%  in 7 mi Calm Calm - -   Haze
7:00 PM 60.8 °F 59.0 °F 94% 30.25 in 6.2 mi Calm Calm - N/A   Scattered Clouds
8:00 PM 60.8 °F 59.0 °F 94% 30.27 in 5.6 mi Calm Calm - N/A   Scattered Clouds
9:00 PM 59.0 °F 57.2 °F 94% 30.29 in 5.0 mi Calm Calm - N/A   Scattered Clouds
10:00 PM 59 °F 58 °F 96%  in 5 mi Calm Calm - - Rain Light Drizzle
10:00 PM 59.0 °F 59.0 °F 100% 30.31 in 5.0 mi Calm Calm - N/A   Light Drizzle
11:00 PM 59.0 °F 59.0 °F 100% 30.31 in 3.7 mi Calm Calm - N/A   Light Drizzle